Location: Corralito
(10.2667°N, 66.9500°W)
Time: 18:26:29
(UTC+00:00)

Cosmos 2251 Rocket - Pass Details

Date: 08 December 2023
Orbit: 763 x 790 km, 74.0° (Epoch: 03 March)

Event Time Altitude Azimuth Distance (km) Brightness Sun altitude
Rises 09:58:02 0° 154° (SSE) 3,217 7.5 -8.9°
Reaches altitude 10° 10:01:40 10° 128° (SE) 2,292 7.4 -8.0°
Maximum altitude 10:04:08 13° 100° (E) 2,061 7.2 -7.5°
Drops below altitude 10° 10:06:35 10° 71° (ENE) 2,294 6.8 -6.9°
Sets 10:10:12 0° 45° (NE) 3,223 7.1 -6.1°
